EW0150 Weather Reports


time (UTC)temp
C
wind
direction
speed
KPH
gust
KPH
rain 1hr
cm
rain 24hr
cm
rain mn
cm
humidity
%
barometer
mb
20260901231004 11 194 0.0 1.6 0.00 0.00 0.00 91 1020.5
20260901230009 11 194 1.6 1.6 0.00 0.00 0.00 90 1020.6
20260901225005 11 194 0.0 3.2 0.00 0.00 0.00 90 1020.5
20260901224004 11 194 0.0 0.0 0.00 0.00 0.00 91 1020.5
20260901223006 11 194 0.0 1.6 0.00 0.00 0.00 90 1020.5
20260901222006 11 194 0.0 1.6 0.00 0.00 0.00 90 1020.5
20260901221005 11 194 1.6 3.2 0.00 0.00 0.00 89 1020.4
20260901220011 11 194 0.0 0.0 0.00 0.00 0.00 90 1020.4
20260901214006 12 194 0.0 3.2 0.00 0.00 0.00 90 1020.4
20260901213005 12 194 0.0 1.6 0.00 0.00 0.00 89 1020.4
20260901212005 12 194 1.6 3.2 0.00 0.00 0.00 89 1020.4
20260901211004 12 194 1.6 1.6 0.00 0.00 0.00 88 1020.5
20260901210007 13 194 1.6 3.2 0.00 0.00 0.00 87 1020.4
20260901205005 13 194 1.6 3.2 0.00 0.00 0.00 88 1020.4
20260901204006 13 194 0.0 1.6 0.00 0.00 0.00 89 1020.4
20260901203006 13 194 0.0 1.6 0.00 0.00 0.00 89 1020.4
20260901202005 13 194 1.6 1.6 0.00 0.00 0.00 89 1020.3
20260901201003 13 194 1.6 3.2 0.00 0.00 0.00 87 1020.3
20260901200012 13 194 0.0 1.6 0.00 0.00 0.00 88 1020.3
20260901195004 13 194 0.0 1.6 0.00 0.00 0.00 87 1020.2
20260901194005 14 194 3.2 4.8 0.00 0.00 0.00 85 1020.2
20260901193004 14 194 3.2 4.8 0.00 0.00 0.00 86 1020.3
20260901191003 15 194 1.6 3.2 0.00 0.00 0.00 85 1020.2
20260901184003 15 194 1.6 4.8 0.00 0.00 0.00 85 1020.2
20260901182005 16 144 1.6 4.8 0.00 0.00 0.00 81 1020.1
20260901181003 16 144 1.6 3.2 0.00 0.00 0.00 81 1020.0
20260901180008 16 144 3.2 4.8 0.00 0.00 0.00 79 1019.9
20260901175005 17 144 3.2 4.8 0.00 0.00 0.00 77 1019.7
20260901174008 17 281 3.2 3.2 0.00 0.00 0.00 75 1019.7
20260901173003 18 281 1.6 3.2 0.00 0.00 0.00 73 1019.6
20260901172005 18 281 0.0 3.2 0.00 0.00 0.00 69 1019.6
20260901171005 19 281 1.6 3.2 0.00 0.00 0.00 67 1019.6
20260901170007 20 281 1.6 4.8 0.00 0.00 0.00 67 1019.5
20260901165004 20 281 1.6 3.2 0.00 0.00 0.00 65 1019.4
20260901164008 20 281 1.6 6.4 0.00 0.00 0.00 65 1019.5
20260901162003 20 311 3.2 6.4 0.00 0.00 0.00 64 1019.5
20260901155007 20 311 6.4 14.5 0.00 0.00 0.00 63 1019.5
20260901154005 20 323 8.0 14.5 0.00 0.00 0.00 63 1019.5
20260901153008 20 335 9.7 16.1 0.00 0.00 0.00 62 1019.5
20260901152004 20 329 9.7 17.7 0.00 0.00 0.00 62 1019.4
20260901151009 21 345 14.5 22.5 0.00 0.00 0.00 60 1019.3
20260901150008 21 299 12.9 22.5 0.00 0.00 0.00 59 1019.2
20260901145004 21 335 11.3 22.5 0.00 0.00 0.00 60 1019.2
20260901144007 21 290 11.3 20.9 0.00 0.00 0.00 58 1019.2
20260901143004 21 277 11.3 24.1 0.00 0.00 0.00 58 1019.2
20260901141004 22 263 12.9 24.1 0.00 0.00 0.00 57 1019.0
20260901140010 21 296 11.3 19.3 0.00 0.00 0.00 57 1019.1
20260901135006 21 284 12.9 22.5 0.00 0.00 0.00 56 1019.2
20260901134005 22 337 9.7 17.7 0.00 0.00 0.00 55 1019.1
20260901133005 22 313 12.9 22.5 0.00 0.00 0.00 55 1019.1
20260901132004 21 325 9.7 19.3 0.00 0.00 0.00 54 1019.1
20260901131005 21 286 11.3 20.9 0.00 0.00 0.00 53 1019.1
20260901130008 22 273 12.9 20.9 0.00 0.00 0.00 54 1019.1
20260901125005 22 326 16.1 25.7 0.00 0.00 0.00 54 1019.2
20260901124006 22 331 17.7 30.6 0.00 0.00 0.00 53 1019.1
20260901123005 22 21 12.9 25.7 0.00 0.00 0.00 52 1019.1
20260901122007 22 323 12.9 20.9 0.00 0.00 0.00 54 1019.1
20260901120008 22 15 9.7 19.3 0.00 0.00 0.00 53 1019.1
20260901115005 21 342 12.9 20.9 0.00 0.00 0.00 55 1019.2
20260901114007 21 243 6.4 14.5 0.00 0.00 0.00 56 1019.2
20260901112006 21 257 8.0 14.5 0.00 0.00 0.00 55 1019.2
20260901111005 21 271 8.0 16.1 0.00 0.00 0.00 56 1019.1
20260901110010 21 281 9.7 16.1 0.00 0.00 0.00 56 1019.1
20260901104006 21 300 6.4 16.1 0.00 0.00 0.00 58 1019.1
20260901103004 21 247 4.8 11.3 0.00 0.00 0.00 55 1019.1
20260901101004 21 292 6.4 16.1 0.00 0.00 0.00 57 1019.1
20260901100007 21 254 8.0 17.7 0.00 0.00 0.00 56 1019.1
20260901094007 21 265 8.0 20.9 0.00 0.00 0.00 61 1019.0
20260901092006 20 294 11.3 19.3 0.00 0.00 0.00 62 1019.0
20260901091004 21 288 11.3 20.9 0.00 0.00 0.00 59 1019.0
20260901090009 20 321 11.3 22.5 0.00 0.00 0.00 60 1019.0
20260901083006 20 270 16.1 27.4 0.00 0.00 0.00 61 1019.0
20260901082007 20 331 16.1 30.6 0.00 0.00 0.00 60 1018.9
20260901081004 20 310 14.5 25.7 0.00 0.00 0.00 60 1018.9
20260901080006 20 304 16.1 32.2 0.00 0.00 0.00 60 1018.9
20260901075007 19 321 16.1 30.6 0.00 0.00 0.00 62 1018.7
20260901074004 19 339 17.7 30.6 0.00 0.00 0.00 62 1018.7
20260901073006 19 309 14.5 29.0 0.00 0.00 0.00 62 1018.5
20260901072007 19 307 14.5 22.5 0.00 0.00 0.00 64 1018.6
20260901071005 19 305 11.3 22.5 0.00 0.00 0.00 65 1018.4
20260901070010 18 287 6.4 17.7 0.00 0.00 0.00 67 1018.3
20260901065006 18 296 4.8 12.9 0.00 0.00 0.00 69 1018.2
20260901064006 18 277 8.0 16.1 0.00 0.00 0.00 70 1018.2
20260901063007 17 289 11.3 17.7 0.00 0.00 0.00 70 1018.1
20260901062007 17 302 8.0 19.3 0.00 0.00 0.00 71 1018.0
20260901061005 17 279 6.4 12.9 0.00 0.00 0.00 72 1017.9
20260901060010 17 316 6.4 11.3 0.00 0.00 0.00 72 1017.7
20260901055006 17 196 6.4 14.5 0.00 0.00 0.00 74 1017.7
20260901054007 16 281 4.8 11.3 0.00 0.00 0.00 75 1017.5
20260901053006 16 302 4.8 11.3 0.00 0.00 0.00 75 1017.4
20260901050009 16 197 6.4 14.5 0.00 0.00 0.00 77 1016.9
20260901045007 15 238 4.8 11.3 0.00 0.00 0.00 78 1016.8
20260901044005 15 250 8.0 14.5 0.00 0.00 0.00 78 1016.7
20260901043008 15 260 8.0 16.1 0.00 0.00 0.00 78 1016.6
20260901042006 15 242 6.4 12.9 0.00 0.00 0.00 79 1016.5
20260901040011 13 257 1.6 4.8 0.00 0.00 0.00 84 1016.4
20260901034007 15 200 6.4 9.7 0.00 0.00 0.00 80 1016.1
20260901032008 15 217 8.0 12.9 0.00 0.00 0.00 80 1016.0
20260901031005 15 233 8.0 12.9 0.00 0.00 0.00 80 1016.0
20260901030012 15 227 8.0 11.3 0.00 0.00 0.00 80 1016.0
20260901024005 15 200 6.4 9.7 0.00 0.00 0.00 83 1015.9
20260901023008 13 217 3.2 6.4 0.00 0.00 0.00 88 1015.9
20260901022005 13 217 3.2 3.2 0.00 0.00 0.00 88 1015.9
20260901021007 13 217 1.6 3.2 0.00 0.00 0.00 88 1015.9
20260901020010 16 217 4.8 8.0 0.00 0.00 0.00 78 1015.8
20260901015005 16 225 6.4 9.7 0.00 0.00 0.00 78 1015.9
20260901014008 16 211 6.4 9.7 0.00 0.00 0.00 78 1015.9
20260901013005 16 217 6.4 9.7 0.00 0.00 0.00 76 1015.8
20260901012011 16 227 6.4 11.3 0.00 0.00 0.00 77 1016.0
20260901011005 17 221 8.0 11.3 0.00 0.00 0.00 77 1016.0
20260901010010 17 207 8.0 11.3 0.00 0.00 0.00 77 1016.0
20260901005005 16 209 6.4 9.7 0.00 0.00 0.00 78 1016.0
20260901003006 17 217 8.0 11.3 0.00 0.00 0.00 77 1016.1
20260901002008 17 213 6.4 9.7 0.00 0.00 0.00 79 1016.1
20260831235008 17 212 4.8 8.0 0.00 0.00 0.00 81 1016.2
20260831234004 16 221 4.8 6.4 0.00 0.00 0.00 88 1016.3
20260831233008 17 223 6.4 8.0 0.00 0.00 0.00 84 1016.4